This is the latest recevied weather packets stored in our database for station/object VK3MAK-1. If no packets are shown the sender has not sent any weather packets the latest 10 day(s).
| Time | Temp. | Humidity | Pressure | Rain* | Wind** | Luminosity | Snow |
|---|---|---|---|---|---|---|---|
| 1778077804 | 7.22° C | 81% | 1020.3 hPa | 0 mm | 7.6 m/s, 248° | - | - |
| 1778077204 | 7.22° C | 81% | 1020.3 hPa | 0 mm | 7.6 m/s, 248° | - | - |
| 1778076604 | 7.22° C | 77% | 1020.5 hPa | 0 mm | 5.36 m/s, 248° | - | - |
| 1778076005 | 7.22° C | 76% | 1020.1 hPa | 0 mm | 4.02 m/s, 270° | - | - |
| 1778075404 | 7.22° C | 76% | 1020.1 hPa | 0 mm | 4.02 m/s, 270° | - | - |
| 1778074804 | 7.22° C | 76% | 1020.1 hPa | 0 mm | 4.02 m/s, 270° | - | - |
| 1778074204 | 6.67° C | 79% | 1020 hPa | 0 mm | 3.58 m/s, 270° | - | - |
| 1778073604 | 6.67° C | 79% | 1020 hPa | 0 mm | 3.58 m/s, 270° | - | - |
| 1778073003 | 6.67° C | 79% | 1020 hPa | 0 mm | 3.58 m/s, 270° | - | - |
| 1778072403 | 6.67° C | 84% | 1020.2 hPa | 0 mm | 3.58 m/s, 225° | - | - |
| 1778071803 | 6.67° C | 84% | 1020.2 hPa | 0 mm | 3.58 m/s, 225° | - | - |
| 1778071204 | 6.67° C | 84% | 1020.2 hPa | 0 mm | 3.58 m/s, 225° | - | - |
| 1778070603 | 7.22° C | 74% | 1020.1 hPa | 0 mm | 3.58 m/s, 248° | - | - |
| 1778070003 | 7.22° C | 74% | 1020.1 hPa | 0 mm | 3.58 m/s, 248° | - | - |
| 1778069403 | 7.22° C | 74% | 1020.1 hPa | 0 mm | 3.58 m/s, 248° | - | - |
| 1778068803 | 7.78° C | 78% | 1020 hPa | 0 mm | 2.68 m/s, 270° | - | - |
| 1778068203 | 7.78° C | 78% | 1020 hPa | 0 mm | 2.68 m/s, 270° | - | - |
| 1778067603 | 7.78° C | 78% | 1020 hPa | 0 mm | 2.68 m/s, 270° | - | - |
| 1778067003 | 8.33° C | 80% | 1020 hPa | 0 mm | 3.58 m/s, 270° | - | - |
| 1778066403 | 8.33° C | 80% | 1020 hPa | 0 mm | 3.58 m/s, 270° | - | - |
| 1778065803 | 8.33° C | 80% | 1020 hPa | 0 mm | 3.58 m/s, 270° | - | - |
| 1778065203 | 8.33° C | 80% | 1019.6 hPa | 0 mm | 4.47 m/s, 248° | - | - |
| 1778064603 | 8.33° C | 80% | 1019.6 hPa | 0.25 mm | 4.47 m/s, 248° | - | - |
| 1778064003 | 8.33° C | 80% | 1019.6 hPa | 0.25 mm | 4.47 m/s, 248° | - | - |
| 1778063403 | 8.33° C | 80% | 1019.3 hPa | 0 mm | 3.58 m/s, 248° | - | - |
* Rain latest hour (hover to see other rain measurements)
** Current wind speed in m/s (hover to see current wind gust speed)